Temp
-11 -10 -10 -10 -10 -10 -10 -10 -10 -10 -10 -10 -10 -11 -11 -11 -11 -11 -11 -11 -11 -11 -11 -11 -11 -11 -11 -11 -11 -11 -11 -11 -12 -12 -12 -12 -13 -13 -13 -13 -13 -14 -14 -14 -14
-11 -11 -10 -10 -10 -10 -10 -10 -10 -11 -10 -10 -11 -11 -11 -11 -11 -11 -11 -11 -11 -11 -11 -11 -11 -11 -11 -11 -11 -11 -11 -11 -12 -12 -12 -12 -13 -13 -13 -13 -14 -14 -14 -14 -15
-11 -11 -11 -11 -11 -10 -10 -10 -10 -11 -10 -11 -11 -11 -11 -11 -11 -11 -11 -11 -11 -11 -11 -11 -11 -11 -12 -11 -11 -11 -11 -12 -12 -12 -12 -13 -13 -13 -14 -14 -14 -14 -15 -15 -15
-11 -11 -11 -11 -11 -11 -10 -10 -11 -11 -11 -11 -11 -11 -11 -11 -11 -11 -11 -11 -11 -11 -11 -11 -11 -12 -12 -12 -12 -12 -12 -12 -12 -12 -12 -12 -13 -13 -14 -14 -14 -15 -15 -15 -15
-12 -12 -11 -11 -11 -11 -11 -11 -11 -11 -11 -11 -11 -11 -11 -11 -11 -11 -11 -11 -11 -11 -11 -11 -12 -12 -12 -12 -12 -12 -12 -12 -12 -12 -13 -13 -13 -13 -14 -14 -14 -15 -15 -16 -16
-12 -12 -12 -12 -11 -11 -11 -11 -11 -11 -11 -11 -11 -11 -11 -11 -11 -11 -11 -12 -12 -12 -12 -12 -12 -12 -12 -12 -12 -12 -12 -12 -13 -13 -13 -13 -13 -13 -14 -14 -15 -15 -15 -15 -16
-12 -12 -12 -12 -12 -12 -11 -11 -11 -11 -11 -11 -11 -11 -11 -11 -11 -11 -12 -12 -12 -12 -12 -12 -12 -12 -12 -12 -12 -12 -12 -12 -13 -13 -14 -14 -14 -14 -14 -14 -14 -15 -15 -15 -16
-13 -13 -13 -13 -12 -12 -12 -12 -12 -11 -11 -11 -11 -11 -11 -11 -12 -12 -12 -12 -12 -12 -12 -12 -12 -12 -12 -12 -12 -12 -12 -12 -13 -13 -14 -14 -14 -14 -14 -15 -15 -15 -15 -16 -16
-14 -14 -13 -13 -13 -13 -13 -12 -12 -12 -12 -12 -12 -11 -11 -12 -12 -12 -12 -12 -12 -12 -12 -12 -12 -12 -13 -13 -13 -13 -13 -13 -13 -14 -14 -15 -15 -15 -15 -15 -15 -15 -16 -16 -16
-14 -14 -14 -14 -13 -13 -13 -13 -13 -12 -12 -12 -12 -12 -12 -12 -12 -12 -12 -12 -12 -12 -12 -12 -12 -13 -13 -13 -13 -13 -13 -13 -13 -13 -14 -15 -15 -15 -15 -15 -15 -16 -16 -17 -17
-14 -14 -14 -14 -14 -14 -14 -14 -13 -13 -13 -13 -12 -12 -12 -12 -12 -12 -12 -13 -13 -13 -13 -13 -13 -13 -13 -13 -13 -13 -13 -13 -13 -13 -14 -15 -15 -16 -15 -15 -16 -17 -17 -18 -18
-14 -14 -14 -14 -14 -14 -14 -14 -14 -13 -13 -13 -13 -13 -13 -12 -12 -12 -13 -13 -13 -13 -13 -13 -13 -13 -13 -13 -13 -13 -13 -13 -13 -14 -14 -15 -15 -15 -16 -16 -17 -18 -18 -19 -19
-15 -15 -15 -15 -15 -14 -14 -14 -14 -14 -14 -14 -13 -13 -13 -13 -13 -13 -13 -13 -13 -14 -14 -13 -13 -13 -13 -13 -13 -13 -13 -13 -14 -14 -15 -15 -16 -16 -16 -17 -18 -18 -19 -19 -20
-15 -15 -15 -15 -15 -15 -14 -14 -14 -14 -14 -14 -14 -14 -13 -13 -13 -13 -14 -14 -14 -14 -14 -14 -14 -13 -13 -14 -14 -14 -14 -14 -14 -14 -15 -16 -16 -17 -17 -18 -19 -19 -19 -20 -21
-16 -15 -15 -15 -15 -15 -15 -15 -15 -15 -14 -14 -14 -14 -14 -14 -14 -14 -14 -14 -14 -14 -14 -14 -14 -14 -14 -14 -14 -14 -14 -14 -15 -15 -15 -16 -17 -17 -18 -18 -19 -20 -20 -21 -21
-16 -16 -16 -15 -15 -15 -15 -15 -15 -15 -15 -14 -14 -14 -14 -14 -14 -14 -15 -15 -15 -14 -14 -14 -14 -14 -14 -14 -14 -14 -14 -15 -15 -15 -16 -17 -17 -17 -18 -19 -20 -20 -21 -21 -22
-16 -16 -16 -16 -15 -15 -15 -15 -15 -14 -15 -14 -15 -15 -15 -15 -15 -15 -15 -15 -15 -15 -15 -14 -14 -14 -14 -14 -15 -15 -15 -15 -15 -16 -16 -17 -17 -18 -19 -19 -20 -20 -21 -22 -23
-16 -16 -16 -16 -16 -15 -15 -15 -14 -14 -15 -16 -15 -15 -15 -15 -15 -15 -15 -15 -15 -15 -15 -15 -15 -15 -15 -15 -15 -15 -16 -16 -16 -16 -17 -18 -19 -19 -19 -20 -20 -21 -22 -24 -24
-17 -17 -16 -16 -16 -16 -16 -15 -14 -15 -15 -15 -16 -15 -16 -16 -16 -16 -16 -16 -16 -15 -15 -15 -15 -15 -15 -15 -16 -16 -16 -17 -17 -18 -18 -18 -19 -19 -20 -20 -21 -22 -24 -25 -25
-17 -17 -16 -17 -16 -16 -15 -15 -15 -15 -16 -16 -16 -16 -16 -16 -16 -16 -16 -16 -16 -16 -16 -15 -15 -15 -15 -16 -16 -17 -17 -18 -18 -19 -19 -19 -20 -20 -20 -20 -22 -23 -24 -25 -25
-17 -17 -16 -16 -16 -15 -14 -15 -16 -16 -17 -17 -17 -18 -16 -16 -16 -16 -16 -16 -16 -16 -16 -16 -16 -16 -16 -16 -16 -17 -18 -19 -19 -20 -20 -20 -20 -21 -21 -22 -22 -24 -25 -25 -25
-17 -17 -17 -16 -16 -15 -15 -15 -16 -16 -17 -17 -17 -17 -17 -17 -16 -16 -16 -16 -16 -16 -16 -16 -16 -16 -16 -16 -17 -17 -19 -19 -20 -20 -20 -21 -20 -21 -22 -22 -23 -24 -25 -25 -26
-17 -17 -16 -16 -15 -14 -15 -16 -16 -16 -17 -16 -17 -17 -17 -17 -17 -16 -16 -16 -16 -16 -16 -16 -16 -17 -17 -17 -17 -18 -19 -20 -20 -20 -21 -21 -22 -22 -22 -22 -24 -25 -25 -25 -27
-17 -16 -16 -15 -14 -15 -15 -16 -16 -16 -17 -16 -16 -17 -17 -17 -17 -16 -16 -16 -16 -16 -17 -17 -16 -17 -17 -17 -17 -19 -20 -20 -20 -21 -21 -21 -22 -23 -22 -23 -24 -25 -25 -26 -27
-16 -16 -15 -14 -14 -15 -16 -16 -16 -16 -17 -16 -16 -16 -17 -17 -16 -16 -16 -16 -16 -17 -17 -17 -17 -17 -18 -18 -18 -19 -20 -21 -21 -21 -21 -22 -22 -23 -23 -23 -25 -25 -26 -26 -27
-17 -15 -15 -15 -16 -16 -16 -15 -16 -17 -16 -16 -16 -16 -16 -16 -16 -16 -16 -17 -17 -17 -17 -17 -17 -18 -18 -18 -19 -19 -20 -21 -21 -21 -22 -22 -22 -23 -23 -24 -25 -25 -26 -27 -27
-16 -17 -16 -16 -17 -17 -15 -16 -16 -16 -16 -16 -16 -16 -16 -16 -16 -17 -17 -17 -17 -17 -17 -17 -17 -18 -18 -19 -19 -18 -21 -21 -22 -22 -23 -23 -23 -23 -23 -24 -25 -25 -26 -27 -27
Height
5811 5813 5815 5814 5816 5818 5820 5821 5821 5821 5821 5823 5824 5825 5826 5826 5826 5826 5825 5825 5825 5824 5824 5823 5822 5820 5819 5816 5813 5811 5809 5807 5805 5804 5802 5800 5799 5797 5795 5792 5790 5788 5785 5782 5780
5810 5811 5811 5812 5814 5815 5817 5818 5818 5818 5819 5821 5823 5823 5823 5824 5823 5823 5823 5823 5822 5822 5822 5820 5819 5818 5817 5815 5813 5810 5808 5805 5804 5802 5800 5798 5796 5794 5794 5790 5788 5786 5783 5780 5777
5806 5807 5809 5809 5811 5813 5813 5815 5815 5815 5815 5819 5819 5820 5821 5820 5821 5820 5820 5820 5820 5819 5819 5818 5817 5816 5814 5812 5809 5807 5805 5803 5801 5799 5797 5795 5793 5791 5790 5788 5785 5783 5780 5776 5771
5802 5804 5805 5805 5808 5810 5810 5812 5813 5812 5812 5814 5816 5816 5817 5817 5818 5818 5818 5817 5816 5818 5816 5815 5814 5812 5811 5809 5806 5804 5802 5800 5798 5797 5795 5793 5791 5788 5785 5782 5780 5778 5776 5772 5767
5797 5799 5800 5801 5805 5806 5807 5807 5809 5810 5810 5810 5813 5813 5813 5814 5813 5815 5815 5814 5814 5813 5813 5812 5810 5809 5808 5806 5804 5801 5799 5797 5795 5794 5792 5789 5787 5784 5780 5777 5775 5773 5769 5765 5760
5794 5795 5795 5798 5800 5801 5802 5803 5804 5806 5806 5807 5809 5809 5809 5811 5810 5809 5810 5810 5810 5810 5809 5809 5807 5806 5804 5802 5800 5797 5795 5793 5792 5790 5788 5785 5783 5780 5777 5774 5770 5767 5763 5757 5754
5789 5790 5791 5793 5795 5796 5797 5798 5799 5801 5802 5803 5804 5805 5805 5806 5806 5806 5806 5806 5806 5806 5805 5805 5803 5802 5800 5798 5795 5793 5792 5790 5789 5786 5784 5780 5778 5775 5773 5770 5765 5761 5756 5751 5747
5783 5784 5787 5788 5789 5790 5792 5793 5794 5796 5797 5798 5800 5799 5801 5801 5801 5801 5801 5802 5802 5801 5801 5800 5799 5798 5797 5794 5792 5790 5788 5786 5784 5782 5779 5776 5773 5770 5767 5763 5758 5754 5750 5746 5741
5777 5778 5780 5782 5783 5784 5786 5787 5789 5790 5791 5792 5794 5794 5795 5796 5797 5797 5797 5797 5797 5797 5796 5795 5795 5794 5793 5790 5789 5786 5784 5781 5780 5777 5774 5771 5767 5764 5760 5756 5752 5747 5742 5737 5732
5770 5772 5774 5775 5776 5777 5779 5780 5782 5783 5784 5785 5787 5790 5790 5790 5790 5791 5792 5791 5791 5791 5791 5791 5790 5789 5788 5786 5784 5782 5779 5777 5775 5772 5768 5765 5761 5757 5753 5749 5744 5739 5734 5730 5724
5762 5763 5765 5767 5768 5769 5771 5772 5776 5777 5777 5779 5781 5782 5783 5784 5785 5785 5786 5786 5785 5786 5785 5785 5785 5783 5783 5781 5779 5776 5774 5772 5769 5766 5763 5760 5756 5751 5746 5741 5736 5730 5725 5721 5715
5755 5757 5757 5758 5759 5760 5762 5764 5766 5769 5769 5771 5773 5776 5777 5778 5779 5780 5780 5781 5780 5780 5780 5780 5779 5778 5777 5776 5773 5771 5769 5767 5764 5760 5757 5753 5748 5744 5738 5733 5728 5723 5718 5711 5704
5746 5749 5751 5751 5750 5752 5754 5755 5757 5759 5761 5763 5765 5768 5771 5772 5772 5773 5774 5774 5774 5774 5774 5774 5774 5773 5772 5770 5767 5765 5764 5761 5758 5753 5749 5745 5742 5737 5732 5727 5721 5713 5707 5701 5695
5737 5739 5742 5744 5745 5743 5746 5748 5749 5750 5751 5756 5757 5761 5763 5764 5765 5766 5766 5768 5768 5769 5769 5769 5768 5767 5766 5764 5761 5759 5757 5754 5750 5746 5742 5738 5733 5727 5724 5720 5713 5705 5699 5692 5685
5728 5732 5734 5735 5738 5736 5738 5740 5741 5743 5740 5749 5752 5754 5755 5757 5758 5759 5760 5761 5762 5762 5764 5763 5762 5761 5760 5757 5755 5753 5749 5746 5742 5738 5735 5731 5726 5719 5717 5712 5704 5698 5691 5683 5676
5718 5723 5725 5727 5730 5730 5731 5732 5734 5735 5732 5741 5744 5746 5747 5748 5749 5751 5753 5755 5756 5756 5756 5757 5756 5756 5754 5751 5748 5745 5742 5738 5734 5731 5728 5723 5718 5714 5710 5702 5695 5689 5681 5673 5666
5708 5713 5716 5720 5721 5722 5724 5726 5725 5723 5733 5735 5736 5738 5740 5741 5742 5744 5746 5748 5749 5750 5750 5750 5749 5749 5747 5744 5741 5737 5734 5730 5727 5723 5719 5713 5709 5706 5701 5694 5687 5680 5672 5664 5656
5698 5704 5708 5711 5713 5713 5716 5715 5712 5722 5725 5728 5730 5731 5732 5734 5736 5738 5740 5741 5742 5743 5743 5742 5743 5741 5739 5737 5734 5730 5726 5722 5717 5714 5710 5704 5701 5699 5693 5684 5678 5669 5661 5653 5645
5689 5693 5697 5700 5702 5704 5706 5701 5707 5715 5718 5721 5723 5724 5725 5727 5729 5731 5732 5733 5734 5735 5736 5735 5735 5733 5731 5728 5726 5722 5718 5714 5709 5705 5702 5697 5693 5691 5682 5673 5668 5659 5650 5644 5636
5675 5681 5685 5687 5690 5692 5692 5692 5697 5706 5709 5713 5714 5714 5719 5720 5722 5723 5723 5725 5727 5727 5727 5727 5725 5724 5721 5720 5717 5713 5711 5706 5701 5696 5693 5688 5685 5682 5672 5665 5658 5649 5642 5636 5627
5660 5665 5671 5674 5678 5679 5676 5686 5693 5699 5702 5703 5704 5704 5709 5712 5712 5715 5715 5718 5717 5719 5718 5718 5717 5716 5713 5711 5707 5705 5702 5698 5694 5691 5685 5679 5678 5671 5663 5655 5647 5640 5633 5626 5615
5643 5649 5659 5664 5666 5663 5671 5681 5687 5688 5691 5692 5694 5697 5698 5702 5703 5705 5708 5708 5709 5709 5709 5708 5706 5705 5704 5701 5698 5696 5693 5690 5685 5684 5678 5672 5674 5663 5653 5647 5639 5630 5622 5614 5604
5630 5637 5643 5648 5648 5654 5663 5669 5676 5679 5681 5680 5683 5686 5690 5691 5693 5697 5698 5699 5699 5700 5698 5699 5696 5695 5694 5693 5690 5686 5684 5681 5677 5675 5672 5665 5662 5656 5646 5638 5629 5621 5614 5605 5596
5614 5619 5626 5628 5637 5644 5652 5661 5664 5666 5669 5671 5674 5675 5679 5680 5684 5686 5689 5690 5690 5689 5688 5687 5685 5685 5685 5683 5681 5678 5675 5673 5669 5666 5661 5661 5652 5647 5638 5629 5620 5612 5605 5596 5589
5595 5602 5612 5617 5625 5637 5644 5648 5650 5652 5661 5663 5665 5668 5672 5671 5672 5675 5678 5679 5680 5679 5677 5676 5676 5675 5674 5673 5671 5669 5666 5664 5662 5658 5652 5652 5647 5640 5631 5622 5613 5606 5598 5590 5582
5576 5588 5599 5605 5615 5622 5628 5631 5637 5645 5649 5653 5655 5659 5660 5661 5664 5665 5667 5668 5668 5668 5666 5665 5665 5664 5663 5663 5662 5659 5657 5657 5655 5651 5644 5640 5639 5633 5624 5615 5607 5599 5591 5583 5576
5560 5576 5581 5589 5598 5605 5613 5625 5633 5634 5636 5640 5646 5648 5649 5650 5651 5653 5655 5655 5656 5656 5655 5655 5655 5654 5653 5653 5651 5647 5654 5649 5647 5642 5636 5633 5628 5623 5616 5607 5599 5591 5584 5576 5570
Wind_Speed
18 17 17 14 14 14 15 16 16 15 15 16 16 14 14 14 14 14 13 10 12 15 17 17 18 19 19 20 19 21 22 23 22 21 19 20 23 25 25 23 25 25 25 27 28
19 19 18 15 15 14 15 16 17 15 16 17 17 16 16 16 15 15 12 11 12 16 18 19 18 19 19 20 21 22 23 22 22 22 21 22 24 26 27 28 27 27 26 28 29
22 22 20 17 17 16 15 16 16 16 16 18 18 19 18 16 15 15 12 12 13 16 18 19 19 19 18 19 19 22 22 22 22 21 21 24 26 28 28 30 31 31 31 33 34
24 24 23 20 20 18 17 17 16 17 16 18 19 19 19 18 16 16 14 13 14 16 17 19 19 18 18 20 20 22 22 23 22 21 22 25 28 29 31 31 31 31 31 32 35
24 26 25 23 23 21 20 18 17 18 18 19 20 20 20 19 18 18 17 16 17 17 18 20 19 19 18 19 23 23 22 23 24 24 24 26 28 31 32 32 34 34 34 35 37
26 26 26 26 26 24 24 23 22 22 20 20 21 21 21 20 19 21 20 18 19 20 20 21 21 19 19 20 23 23 23 24 25 25 25 28 30 32 33 36 37 38 38 40 42
28 29 28 29 29 28 27 26 25 24 22 20 21 23 23 22 22 23 23 22 23 23 22 22 22 20 20 21 22 23 24 26 27 27 26 30 30 33 35 38 41 43 44 45 47
30 30 31 32 31 31 30 29 29 28 27 24 24 24 24 24 25 25 25 26 26 26 25 23 22 21 21 22 23 24 25 27 28 29 30 31 33 35 36 40 42 44 47 49 49
30 28 33 34 34 33 33 33 32 31 30 29 28 27 26 26 26 26 26 27 27 27 26 23 21 21 23 22 22 25 27 27 29 31 31 31 34 35 38 42 44 46 48 50 52
34 31 31 33 38 38 37 37 36 34 33 31 29 29 27 27 27 27 27 28 27 27 23 21 21 22 23 22 24 27 28 29 32 34 35 34 35 39 42 45 47 47 49 51 51
37 34 34 35 35 38 41 40 39 38 36 34 32 31 28 28 28 28 27 27 26 25 21 20 22 23 23 26 27 27 29 31 34 37 37 38 37 40 44 47 48 48 48 51 53
39 38 36 36 33 35 36 40 43 40 39 38 36 34 31 30 30 29 29 27 25 21 20 21 22 22 24 27 27 28 31 34 36 39 40 40 41 43 45 48 48 48 49 50 51
41 39 38 36 31 30 32 37 39 40 40 39 38 37 33 32 31 30 29 26 23 21 20 21 22 24 26 27 28 29 34 36 38 41 41 41 40 43 46 47 48 48 49 52 52
42 40 37 36 32 28 29 32 35 38 40 39 39 37 34 33 33 31 29 25 22 21 21 21 24 26 26 26 28 31 35 36 39 42 43 43 42 44 46 46 46 48 50 52 52
43 41 38 35 33 27 28 30 31 34 40 35 34 33 33 33 31 29 26 24 23 22 22 22 23 24 25 27 30 33 36 37 39 42 44 43 41 45 44 44 47 47 50 51 52
45 43 40 37 34 30 30 30 31 34 37 30 26 25 27 27 28 26 27 25 24 23 22 23 24 25 27 29 33 36 36 38 41 42 43 43 41 44 44 45 48 48 50 51 53
49 46 42 41 36 34 32 32 35 37 28 28 27 27 27 25 26 27 27 27 26 25 25 26 26 28 30 32 36 37 37 40 43 44 45 42 43 45 45 47 49 50 50 51 53
53 48 46 43 42 36 36 37 41 32 29 26 27 26 26 29 30 31 31 29 29 29 28 28 30 32 33 35 38 38 37 39 43 44 45 42 42 43 46 48 52 52 53 54 55
56 53 51 48 47 42 44 47 41 34 33 28 28 30 31 29 29 31 31 32 31 31 31 33 35 35 36 37 39 38 38 39 41 42 43 44 42 45 48 54 51 51 53 54 59
59 58 55 53 51 48 51 49 42 35 35 31 34 37 32 31 33 33 33 32 31 32 32 35 37 37 38 39 40 39 39 38 38 41 44 44 42 45 50 54 52 50 53 56 58
63 65 62 58 54 55 56 48 39 36 36 37 38 36 36 34 36 35 36 33 34 33 35 36 39 39 40 40 42 41 38 37 38 39 41 44 44 45 52 50 52 51 53 58 56
69 69 64 58 57 57 53 49 40 37 37 40 40 40 42 39 40 39 37 37 35 36 38 41 43 43 42 42 42 41 37 36 38 40 41 41 43 46 50 54 51 52 56 57 52
71 70 71 63 63 54 49 46 45 39 38 38 41 43 44 45 45 40 35 34 35 37 41 41 45 45 45 43 42 42 38 37 38 40 39 41 43 48 51 53 51 52 56 56 47
73 77 74 69 64 53 47 43 44 42 39 40 41 43 43 43 40 39 35 37 39 41 43 45 47 46 44 46 45 41 38 37 39 40 43 40 44 46 54 52 52 53 55 52 43
76 81 76 65 58 48 43 41 43 47 39 37 40 40 40 42 39 38 38 39 41 42 44 45 47 46 46 46 44 41 39 38 40 41 45 42 44 49 51 52 51 52 54 49 44
66 76 72 60 57 54 45 47 46 44 41 37 37 39 44 44 44 45 44 43 45 46 47 47 48 47 47 45 44 44 42 39 40 43 45 46 47 50 51 50 48 52 52 47 43
84 80 74 65 60 60 55 47 45 46 48 45 40 42 44 46 48 50 46 46 49 50 48 49 49 50 49 44 45 48 38 39 40 44 46 47 49 47 52 49 47 51 49 46 43
Wind_Direction
231 231 239 236 248 257 260 261 258 253 249 251 246 245 248 251 258 266 273 277 296 302 301 305 313 321 324 326 328 329 331 332 336 342 337 330 330 329 326 329 327 331 331 330 332
236 235 234 244 250 251 256 253 254 249 250 250 250 249 248 252 260 270 267 283 302 306 308 308 313 318 320 324 325 326 331 330 331 335 336 326 327 322 322 319 320 323 324 325 323
237 236 240 242 248 249 251 251 249 248 246 251 250 252 252 254 265 265 261 283 298 303 307 310 312 313 317 321 321 320 324 325 329 332 331 329 328 327 323 318 317 318 321 322 319
241 241 243 243 248 248 248 250 250 249 248 250 253 251 255 259 263 258 263 278 290 300 304 303 305 307 314 318 318 317 319 322 323 324 322 320 318 321 321 318 317 317 318 314 310
244 244 241 244 247 244 245 243 251 255 253 252 256 254 258 259 260 258 264 275 286 290 297 303 304 306 314 316 316 312 311 316 320 318 315 313 314 315 316 314 315 315 313 310 305
250 246 245 245 246 245 245 247 250 257 260 263 261 257 258 261 258 255 260 269 278 286 294 302 308 304 305 310 311 309 308 308 314 317 318 314 314 310 310 314 313 310 308 305 305
250 251 248 244 245 247 247 248 250 252 257 262 267 267 261 261 257 260 263 269 279 286 291 297 303 298 301 305 307 308 311 310 310 312 315 312 313 311 312 308 305 306 306 306 306
252 252 251 250 247 246 247 248 250 252 256 260 265 267 269 265 261 261 264 269 277 286 289 293 299 298 300 304 305 309 311 309 309 310 311 310 308 310 310 307 306 306 305 304 304
256 257 256 254 253 250 249 250 251 253 256 258 260 264 266 266 265 264 267 271 278 285 290 291 293 296 299 299 304 309 309 307 308 310 311 310 307 308 306 306 308 306 306 305 304
255 259 265 264 256 255 252 251 251 252 254 256 255 261 263 264 264 265 268 271 277 283 284 286 289 293 294 296 301 307 307 307 308 309 308 309 311 308 308 308 307 305 305 304 305
256 258 261 264 262 257 255 254 253 252 253 254 256 258 259 263 265 266 268 273 277 280 277 281 287 290 295 298 299 303 310 310 309 310 309 309 309 308 308 307 305 306 306 306 305
257 259 263 265 264 262 259 257 255 254 254 254 255 257 258 261 265 268 272 274 275 270 273 280 284 290 296 299 301 305 311 310 307 308 308 307 308 309 308 306 306 306 307 308 307
253 258 262 264 263 265 262 258 255 254 253 255 255 255 258 261 263 267 271 273 267 264 271 277 283 290 295 302 304 306 310 309 305 305 307 307 309 308 306 307 310 311 311 309 310
251 254 258 265 265 262 262 261 258 254 255 252 254 256 258 260 262 266 267 263 259 265 270 277 285 292 298 304 306 308 308 306 303 304 305 308 310 310 310 311 311 310 313 313 313
248 252 255 258 263 260 260 260 258 257 258 257 255 257 257 259 260 258 256 252 256 262 268 280 289 296 302 306 309 308 305 304 305 304 304 308 310 310 313 313 311 315 315 314 312
248 250 252 257 261 260 259 259 259 255 254 255 254 253 253 252 252 248 245 250 256 263 270 280 289 296 303 307 311 310 306 306 305 304 305 308 310 313 316 315 315 317 319 316 313
245 247 250 256 256 257 256 258 257 255 258 256 252 249 248 248 244 243 245 251 257 263 272 279 287 294 301 306 311 310 309 307 305 304 305 310 311 314 316 315 317 322 319 315 316
246 245 248 253 255 255 254 252 255 261 260 256 257 249 245 244 244 248 252 253 258 265 273 280 286 294 299 305 310 311 307 304 303 303 305 309 311 316 318 314 322 323 320 318 324
244 244 247 249 252 251 254 252 257 260 258 253 255 255 249 248 250 252 254 256 262 268 274 280 285 289 297 303 308 308 302 302 300 299 303 307 312 319 318 318 325 322 319 321 323
239 242 245 246 248 250 252 254 255 258 257 255 250 250 254 254 256 256 258 260 266 270 275 280 284 289 296 300 304 301 299 298 297 298 302 309 315 323 316 321 323 323 319 321 325
237 240 243 244 246 250 250 252 263 264 260 256 254 250 252 252 256 258 260 265 267 272 277 282 285 292 294 299 300 299 294 291 293 297 301 309 317 320 319 323 325 320 320 322 328
238 242 244 244 246 251 253 257 262 268 258 259 253 253 253 252 254 256 265 268 268 272 278 281 286 290 291 294 296 295 291 287 290 296 301 309 322 322 324 324 324 320 319 324 330
241 243 242 241 248 249 254 256 260 262 260 257 256 252 253 256 256 259 263 268 270 274 277 282 285 285 288 290 292 289 284 282 288 293 303 310 321 329 322 330 322 318 322 327 328
237 238 240 241 246 247 252 256 255 256 255 258 258 256 257 258 259 260 265 270 273 276 278 279 280 282 284 287 288 286 278 280 288 294 300 314 316 325 328 328 319 319 323 327 325
237 238 243 244 246 252 255 252 249 251 255 257 256 257 260 260 258 260 266 271 273 275 275 275 277 277 279 283 284 283 276 279 286 292 301 308 314 322 330 326 318 318 323 326 324
236 245 242 243 249 248 244 243 244 246 251 257 259 258 257 259 261 260 263 270 271 272 272 273 273 273 275 280 282 280 273 280 285 294 299 305 315 324 332 325 317 318 324 325 325
238 241 241 239 241 242 241 250 250 252 253 256 261 264 259 261 261 260 264 265 266 270 271 272 272 270 274 276 278 279 279 278 286 291 296 305 314 325 329 326 318 319 325 326 325